CPA259 VHHH-EGCC

Flight info

Callsign CPA259
Flight time N/A
Altitude 30100
Route BEKOL A461 SHL W22 TEPID W24 OSNOV G586 QP B330 ELKAL W179 OTGIN/K0932S0980 W179 IGNAK/K0935S0950 W179 WFX/K0928S0980 W179 OMBON W195 VIDEK/K0919S0950 W195 LAXAL/K0913S0980 W195 IDOPA W197 ANDIM B215 IBANO G470 AKLAS W192 FKG A368 SALMO/K0904S1040 A368 SARIN/K0902F340 N161 GASBI/N0489F340 N161 LEKBA/N0486F360 N161 LEYLA N644 ADEKI DCT BADIR DCT LAGAS DCT FOQUS DCT SARPI UM10 OLUPO UL851 KARDE UN644 SIN UW90 INB UL746 ODERO L746 LUGEB DCT OBCAS DCT SOBSA DCT REBLA DCT RILAS DCT BADOR DCT PITOK DCT MAKAL DCT LALUK/N0476F380 DCT KUMER DCT MIMVA DCT OTBED
Aircraft B77W/H-SDE1E2E3FGHIJ2J3J4J5M1RWXY/LB1D1

Departure

Time N/A
Airport Hong Kong International Airport (VHHH)

Arrival

Time 2026-05-03 23:34
Airport Manchester Airport (EGCC)
Time Latitude Longitude Altitude Speed Heading
2026-05-03 21:54 50.69140 14.21632 35964 ft 468 kts 296°
2026-05-03 21:54 50.70669 14.17109 35962 ft 467 kts 296°
2026-05-03 21:55 50.73709 14.08096 35966 ft 466 kts 296°
2026-05-03 21:55 50.76747 13.99056 35969 ft 467 kts 296°
2026-05-03 21:56 50.79769 13.90006 35975 ft 467 kts 294°
2026-05-03 21:56 50.82216 13.80569 35980 ft 467 kts 290°
2026-05-03 21:57 50.84544 13.71030 35995 ft 465 kts 289°
2026-05-03 21:57 50.86852 13.61491 35989 ft 467 kts 289°
2026-05-03 21:58 50.89151 13.51935 35993 ft 465 kts 289°
2026-05-03 21:58 50.91436 13.42385 35994 ft 466 kts 289°
2026-05-03 21:59 50.93710 13.32835 35992 ft 465 kts 288°
2026-05-03 21:59 50.95975 13.23276 35991 ft 464 kts 288°
2026-05-03 22:00 50.98232 13.13708 35992 ft 465 kts 288°
2026-05-03 22:00 51.00481 13.04129 35995 ft 465 kts 288°
2026-05-03 22:01 51.02727 12.94521 35991 ft 465 kts 288°
2026-05-03 22:01 51.04968 12.84892 35994 ft 466 kts 288°
2026-05-03 22:02 51.07201 12.75254 35985 ft 466 kts 288°
2026-05-03 22:02 51.09427 12.65600 35987 ft 467 kts 288°
2026-05-03 22:03 51.11647 12.55933 35983 ft 465 kts 288°
2026-05-03 22:03 51.13849 12.46300 35977 ft 465 kts 287°
2026-05-03 22:04 51.16040 12.36665 35979 ft 464 kts 287°
2026-05-03 22:04 51.18226 12.27013 35980 ft 464 kts 287°
2026-05-03 22:05 51.20402 12.17363 35985 ft 464 kts 287°
2026-05-03 22:05 51.22566 12.07718 35977 ft 464 kts 287°
2026-05-03 22:06 51.24729 11.98033 35972 ft 464 kts 287°
2026-05-03 22:06 51.26877 11.88372 35975 ft 464 kts 287°
2026-05-03 22:07 51.29019 11.78693 35976 ft 464 kts 286°
2026-05-03 22:07 51.31156 11.68991 35973 ft 465 kts 286°
2026-05-03 22:08 51.33286 11.59276 35970 ft 464 kts 286°
2026-05-03 22:08 51.35412 11.49530 35969 ft 465 kts 286°
2026-05-03 22:09 51.37531 11.39776 35963 ft 465 kts 286°
2026-05-03 22:10 51.40686 11.25162 35964 ft 464 kts 285°
2026-05-03 22:10 51.42777 11.15415 35968 ft 464 kts 285°
2026-05-03 22:11 51.44861 11.05658 35961 ft 464 kts 285°
2026-05-03 22:11 51.46936 10.95893 35964 ft 464 kts 285°
2026-05-03 22:12 51.49005 10.86110 35965 ft 465 kts 285°
2026-05-03 22:12 51.51067 10.76319 35960 ft 464 kts 285°
2026-05-03 22:13 51.53118 10.66528 35966 ft 464 kts 285°
2026-05-03 22:13 51.55335 10.56838 35967 ft 466 kts 288°
2026-05-03 22:14 51.57798 10.47211 35968 ft 466 kts 288°
2026-05-03 22:14 51.60235 10.37575 35960 ft 466 kts 288°
2026-05-03 22:15 51.62658 10.27904 35969 ft 466 kts 287°
2026-05-03 22:15 51.65064 10.18237 35964 ft 467 kts 287°
2026-05-03 22:16 51.67457 10.08568 35964 ft 465 kts 287°
2026-05-03 22:16 51.69840 9.98886 35954 ft 466 kts 287°
2026-05-03 22:17 51.72219 9.89179 35950 ft 466 kts 287°
2026-05-03 22:17 51.74588 9.79463 35949 ft 466 kts 287°
2026-05-03 22:18 51.76949 9.69739 35935 ft 466 kts 287°
2026-05-03 22:18 51.79301 9.60006 35943 ft 466 kts 287°
2026-05-03 22:19 51.81649 9.50245 35956 ft 468 kts 287°
2026-05-03 22:19 51.83988 9.40481 35951 ft 466 kts 287°
2026-05-03 22:20 51.86321 9.30695 35949 ft 466 kts 286°
2026-05-03 22:20 51.88638 9.20933 35944 ft 467 kts 286°
2026-05-03 22:21 51.90948 9.11156 35948 ft 467 kts 286°
2026-05-03 22:21 51.93258 9.01334 35955 ft 467 kts 286°
2026-05-03 22:22 51.95556 8.91521 35952 ft 467 kts 286°
2026-05-03 22:22 51.97841 8.81715 35945 ft 468 kts 286°
2026-05-03 22:23 52.00124 8.71876 35931 ft 466 kts 286°
2026-05-03 22:23 52.02392 8.62055 35927 ft 467 kts 286°
2026-05-03 22:24 52.04656 8.52205 35930 ft 466 kts 286°
2026-05-03 22:24 52.06907 8.42365 35931 ft 467 kts 286°
2026-05-03 22:25 52.09151 8.32514 35933 ft 465 kts 285°
2026-05-03 22:25 52.11385 8.22657 35925 ft 466 kts 285°
2026-05-03 22:26 52.13612 8.12786 35912 ft 466 kts 285°
2026-05-03 22:26 52.15825 8.02933 35912 ft 465 kts 285°
2026-05-03 22:27 52.18036 7.93036 35920 ft 466 kts 285°
2026-05-03 22:27 52.20233 7.83162 35928 ft 465 kts 285°
2026-05-03 22:28 52.22420 7.73282 35932 ft 464 kts 285°
2026-05-03 22:28 52.24597 7.63401 35917 ft 465 kts 285°
2026-05-03 22:29 52.26770 7.53492 35929 ft 465 kts 285°
2026-05-03 22:29 52.28928 7.43606 35923 ft 464 kts 285°
2026-05-03 22:30 52.31082 7.33687 35912 ft 464 kts 284°
2026-05-03 22:30 52.33225 7.23773 35918 ft 463 kts 284°
2026-05-03 22:31 52.35358 7.13855 35908 ft 463 kts 284°
2026-05-03 22:31 52.37476 7.03958 35917 ft 463 kts 284°
2026-05-03 22:32 52.39594 6.94013 35919 ft 463 kts 285°
2026-05-03 22:32 52.41694 6.84107 35919 ft 462 kts 284°
2026-05-03 22:33 52.43790 6.74172 35919 ft 463 kts 284°
2026-05-03 22:33 52.45881 6.64208 35921 ft 463 kts 285°
2026-05-03 22:34 52.47963 6.54240 35915 ft 463 kts 285°
2026-05-03 22:34 52.50045 6.44218 35913 ft 463 kts 284°
2026-05-03 22:35 52.52114 6.34214 35909 ft 463 kts 284°
2026-05-03 22:35 52.54170 6.24217 35921 ft 464 kts 284°
2026-05-03 22:36 52.56216 6.14225 35919 ft 463 kts 284°
2026-05-03 22:36 52.58255 6.04213 35930 ft 463 kts 284°
2026-05-03 22:37 52.60281 5.94213 35930 ft 463 kts 284°
2026-05-03 22:37 52.62307 5.84165 35930 ft 463 kts 284°
2026-05-03 22:38 52.64328 5.74090 35929 ft 463 kts 284°
2026-05-03 22:38 52.66337 5.64019 35931 ft 464 kts 284°
2026-05-03 22:39 52.68333 5.53964 35928 ft 464 kts 284°
2026-05-03 22:39 52.70324 5.43884 35928 ft 464 kts 284°
2026-05-03 22:40 52.72312 5.33764 35919 ft 463 kts 283°
2026-05-03 22:40 52.74291 5.23639 35926 ft 464 kts 283°
2026-05-03 22:41 52.76257 5.13521 35924 ft 465 kts 283°
2026-05-03 22:41 52.78217 5.03388 35925 ft 465 kts 283°
2026-05-03 22:42 52.80173 4.93218 35935 ft 465 kts 283°
2026-05-03 22:42 52.82117 4.83055 35917 ft 465 kts 284°
2026-05-03 22:43 52.84053 4.72882 35919 ft 465 kts 284°
2026-05-03 22:43 52.85980 4.62701 35912 ft 466 kts 284°
2026-05-03 22:44 52.87902 4.52490 35910 ft 465 kts 284°
2026-05-03 22:44 52.89814 4.42280 35898 ft 465 kts 284°
2026-05-03 22:45 52.91716 4.32065 35902 ft 465 kts 283°
2026-05-03 22:45 52.93612 4.21822 35902 ft 466 kts 283°
2026-05-03 22:46 52.95495 4.11598 35906 ft 465 kts 283°
2026-05-03 22:46 52.97373 4.01343 35913 ft 466 kts 283°
2026-05-03 22:47 52.99248 3.91046 35914 ft 468 kts 283°
2026-05-03 22:47 53.01112 3.80757 35915 ft 467 kts 283°
2026-05-03 22:48 53.02968 3.70451 35915 ft 467 kts 283°
2026-05-03 22:48 53.04799 3.60226 35916 ft 466 kts 283°
2026-05-03 22:49 53.06648 3.49839 35916 ft 466 kts 283°
2026-05-03 22:49 53.08472 3.39538 35916 ft 466 kts 283°
2026-05-03 22:50 53.10007 3.29136 35918 ft 462 kts 275°
2026-05-03 22:50 53.10843 3.18525 35915 ft 462 kts 274°
2026-05-03 22:51 53.11622 3.07915 35912 ft 463 kts 274°
2026-05-03 22:51 53.12373 2.97294 35910 ft 463 kts 274°
2026-05-03 22:52 53.13104 2.86683 35908 ft 463 kts 274°
2026-05-03 22:52 53.13821 2.76048 35907 ft 463 kts 274°
2026-05-03 22:53 53.14527 2.65411 35904 ft 463 kts 274°
2026-05-03 22:53 53.14875 2.60098 36125 ft 463 kts 274°
2026-05-03 22:53 53.15220 2.54792 35940 ft 461 kts 274°
2026-05-03 22:54 53.15900 2.44220 35904 ft 462 kts 273°
2026-05-03 22:54 53.16573 2.33587 35899 ft 462 kts 272°
2026-05-03 22:55 53.17240 2.22902 35904 ft 462 kts 272°
2026-05-03 22:55 53.17894 2.12269 35902 ft 462 kts 272°
2026-05-03 22:56 53.18538 2.01656 35905 ft 462 kts 273°
2026-05-03 22:56 53.19172 1.91025 35881 ft 461 kts 273°
2026-05-03 22:57 53.19796 1.80403 35884 ft 462 kts 273°
2026-05-03 22:57 53.20413 1.69756 35898 ft 462 kts 273°
2026-05-03 22:58 53.21018 1.59129 35892 ft 462 kts 273°
2026-05-03 22:58 53.21614 1.48486 35898 ft 464 kts 273°
2026-05-03 22:59 53.22204 1.37789 35904 ft 464 kts 273°
2026-05-03 22:59 53.22777 1.27261 35902 ft 456 kts 272°
2026-05-03 23:00 53.23339 1.16724 35909 ft 448 kts 272°
2026-05-03 23:00 53.23608 1.11649 35901 ft 432 kts 272°
2026-05-03 23:00 53.23827 1.07468 35914 ft 423 kts 272°
2026-05-03 23:01 53.24336 0.97571 35916 ft 432 kts 272°
2026-05-03 23:01 53.24842 0.87626 35920 ft 431 kts 272°
2026-05-03 23:02 53.25339 0.77684 35920 ft 432 kts 272°
2026-05-03 23:02 53.25829 0.67696 35926 ft 431 kts 272°
2026-05-03 23:03 53.26304 0.57901 35817 ft 414 kts 272°
2026-05-03 23:03 53.26532 0.53138 35302 ft 415 kts 272°
2026-05-03 23:03 53.26758 0.48343 34648 ft 418 kts 272°
2026-05-03 23:03 53.26984 0.43509 34091 ft 419 kts 272°
2026-05-03 23:04 53.27209 0.38659 33603 ft 419 kts 272°
2026-05-03 23:04 53.27431 0.33833 33055 ft 418 kts 271°
2026-05-03 23:04 53.27651 0.29019 32538 ft 416 kts 271°
2026-05-03 23:04 53.27868 0.24229 32051 ft 414 kts 271°
2026-05-03 23:05 53.28083 0.19447 31567 ft 412 kts 271°
2026-05-03 23:05 53.28294 0.14707 31074 ft 410 kts 271°
2026-05-03 23:05 53.28502 0.09988 30539 ft 408 kts 271°
2026-05-03 23:05 53.28775 0.05312 30024 ft 406 kts 277°
2026-05-03 23:06 53.29493 0.00772 29536 ft 405 kts 288°
2026-05-03 23:06 53.30646 -0.03500 29079 ft 403 kts 294°
2026-05-03 23:06 53.31893 -0.07658 28607 ft 399 kts 294°
2026-05-03 23:06 53.33124 -0.11781 28145 ft 395 kts 294°
2026-05-03 23:07 53.34334 -0.15868 27692 ft 391 kts 294°
2026-05-03 23:07 53.35527 -0.19918 27230 ft 388 kts 294°
2026-05-03 23:07 53.36702 -0.23931 26771 ft 384 kts 294°
2026-05-03 23:07 53.37865 -0.27917 26330 ft 381 kts 294°
2026-05-03 23:08 53.39014 -0.31867 25879 ft 377 kts 294°
2026-05-03 23:08 53.40150 -0.35783 25429 ft 374 kts 294°
2026-05-03 23:08 53.41274 -0.39670 24986 ft 370 kts 294°
2026-05-03 23:08 53.42387 -0.43523 24550 ft 367 kts 294°
2026-05-03 23:09 53.43486 -0.47338 24113 ft 364 kts 294°
2026-05-03 23:09 53.44576 -0.51127 23668 ft 361 kts 294°
2026-05-03 23:09 53.45656 -0.54890 23226 ft 358 kts 295°
2026-05-03 23:09 53.46723 -0.58615 22796 ft 355 kts 295°
2026-05-03 23:10 53.47781 -0.62312 22357 ft 352 kts 295°
2026-05-03 23:10 53.48842 -0.66031 21527 ft 361 kts 294°
2026-05-03 23:10 53.49940 -0.69886 20510 ft 374 kts 294°
2026-05-03 23:10 53.51057 -0.73810 19927 ft 373 kts 294°
2026-05-03 23:11 53.52158 -0.77682 19704 ft 363 kts 294°
2026-05-03 23:11 53.53233 -0.81467 19323 ft 359 kts 294°
2026-05-03 23:11 53.54302 -0.85242 18794 ft 359 kts 294°
2026-05-03 23:11 53.55372 -0.89027 18328 ft 358 kts 294°
2026-05-03 23:12 53.56433 -0.92785 17898 ft 356 kts 294°
2026-05-03 23:12 53.57485 -0.96514 17484 ft 353 kts 294°
2026-05-03 23:12 53.58528 -1.00223 17080 ft 351 kts 294°
2026-05-03 23:12 53.59563 -1.03904 16969 ft 350 kts 294°
2026-05-03 23:13 53.60577 -1.07632 16949 ft 351 kts 289°
2026-05-03 23:13 53.61248 -1.11529 16900 ft 343 kts 283°
2026-05-03 23:13 53.61791 -1.15414 16369 ft 344 kts 282°
2026-05-03 23:13 53.62323 -1.19335 15795 ft 345 kts 282°
2026-05-03 23:14 53.62855 -1.23255 15341 ft 343 kts 283°
2026-05-03 23:14 53.63381 -1.27131 14910 ft 340 kts 283°
2026-05-03 23:14 53.63903 -1.30984 14479 ft 337 kts 283°
2026-05-03 23:14 53.64421 -1.34806 14042 ft 335 kts 283°
2026-05-03 23:15 53.64936 -1.38623 13647 ft 335 kts 283°
2026-05-03 23:15 53.65448 -1.42421 13367 ft 332 kts 283°
2026-05-03 23:15 53.65956 -1.46195 13078 ft 331 kts 283°
2026-05-03 23:15 53.66462 -1.49970 12773 ft 329 kts 283°
2026-05-03 23:16 53.66963 -1.53715 12475 ft 328 kts 283°
2026-05-03 23:16 53.67462 -1.57456 12176 ft 327 kts 283°
2026-05-03 23:16 53.67957 -1.61180 11897 ft 326 kts 283°
2026-05-03 23:16 53.68450 -1.64891 11690 ft 325 kts 283°
2026-05-03 23:17 53.68939 -1.68589 11488 ft 323 kts 282°
2026-05-03 23:17 53.69426 -1.72274 11254 ft 322 kts 283°
2026-05-03 23:17 53.69910 -1.75949 11030 ft 322 kts 283°
2026-05-03 23:17 53.70391 -1.79613 10834 ft 319 kts 283°
2026-05-03 23:18 53.70859 -1.83183 10820 ft 304 kts 283°
2026-05-03 23:18 53.71306 -1.86606 10811 ft 293 kts 283°
2026-05-03 23:18 53.71737 -1.89910 10741 ft 285 kts 283°
2026-05-03 23:18 53.72162 -1.93178 10488 ft 287 kts 283°
2026-05-03 23:19 53.72588 -1.96460 10379 ft 287 kts 283°
2026-05-03 23:19 53.73012 -1.99728 10287 ft 285 kts 283°
2026-05-03 23:19 53.73417 -2.02993 10183 ft 285 kts 278°
2026-05-03 23:19 53.73292 -2.06319 9999 ft 288 kts 254°
2026-05-03 23:20 53.72330 -2.09246 9890 ft 288 kts 228°
2026-05-03 23:20 53.70857 -2.11499 9887 ft 284 kts 221°
2026-05-03 23:20 53.69345 -2.13608 9882 ft 280 kts 221°
2026-05-03 23:20 53.67847 -2.15687 9864 ft 277 kts 221°
2026-05-03 23:21 53.66352 -2.17759 9766 ft 278 kts 221°
2026-05-03 23:21 53.64859 -2.19827 9662 ft 279 kts 221°
2026-05-03 23:21 53.63366 -2.21893 9595 ft 278 kts 221°
2026-05-03 23:21 53.61875 -2.23954 9531 ft 277 kts 221°
2026-05-03 23:22 53.58896 -2.28066 9347 ft 277 kts 220°
2026-05-03 23:22 53.57412 -2.30112 9219 ft 276 kts 220°
2026-05-03 23:22 53.55947 -2.32129 9079 ft 269 kts 220°
2026-05-03 23:23 53.54516 -2.34097 8847 ft 264 kts 220°
2026-05-03 23:23 53.53104 -2.36037 8555 ft 262 kts 220°
2026-05-03 23:23 53.51700 -2.37966 8250 ft 261 kts 220°
2026-05-03 23:23 53.50297 -2.39891 7937 ft 262 kts 220°
2026-05-03 23:24 53.48862 -2.41859 7507 ft 271 kts 220°
2026-05-03 23:24 53.47405 -2.43856 7356 ft 270 kts 220°
2026-05-03 23:24 53.45957 -2.45837 7220 ft 268 kts 220°
2026-05-03 23:24 53.44517 -2.47806 7057 ft 267 kts 220°
2026-05-03 23:25 53.43090 -2.49756 6761 ft 266 kts 220°
2026-05-03 23:25 53.41655 -2.51714 6439 ft 265 kts 220°
2026-05-03 23:25 53.40238 -2.53647 6226 ft 260 kts 220°
2026-05-03 23:25 53.38851 -2.55535 6039 ft 254 kts 220°
2026-05-03 23:26 53.37504 -2.57369 5895 ft 243 kts 220°
2026-05-03 23:26 53.36222 -2.59111 5795 ft 232 kts 220°
2026-05-03 23:26 53.35004 -2.60767 5692 ft 221 kts 220°
2026-05-03 23:26 53.33771 -2.62164 5575 ft 209 kts 200°
2026-05-03 23:27 53.32404 -2.62373 5481 ft 192 kts 168°
2026-05-03 23:27 53.31205 -2.61532 5214 ft 186 kts 147°
2026-05-03 23:27 53.30133 -2.60339 4922 ft 185 kts 142°
2026-05-03 23:27 53.29120 -2.59035 4634 ft 184 kts 140°
2026-05-03 23:28 53.28126 -2.57698 4354 ft 183 kts 139°
2026-05-03 23:28 53.27142 -2.56366 4063 ft 182 kts 139°
2026-05-03 23:28 53.26167 -2.55049 3766 ft 180 kts 139°
2026-05-03 23:28 53.25196 -2.53736 3468 ft 179 kts 136°
2026-05-03 23:29 53.24532 -2.52092 3229 ft 169 kts 100°
2026-05-03 23:29 53.24606 -2.50226 3028 ft 160 kts 65°
2026-05-03 23:29 53.25156 -2.48635 2852 ft 158 kts 57°
2026-05-03 23:29 53.25777 -2.47162 2759 ft 154 kts 51°
2026-05-03 23:30 53.26467 -2.45774 2708 ft 156 kts 50°
2026-05-03 23:30 53.27156 -2.44381 2627 ft 158 kts 50°
2026-05-03 23:30 53.27848 -2.42967 2417 ft 155 kts 50°
2026-05-03 23:30 53.28521 -2.41591 2219 ft 150 kts 51°
2026-05-03 23:31 53.29182 -2.40237 2023 ft 148 kts 51°
2026-05-03 23:31 53.29801 -2.38966 1838 ft 138 kts 51°
2026-05-03 23:31 53.30401 -2.37735 1655 ft 136 kts 51°
2026-05-03 23:31 53.31000 -2.36505 1476 ft 137 kts 51°
2026-05-03 23:32 53.31609 -2.35284 1278 ft 137 kts 51°
2026-05-03 23:32 53.32200 -2.34038 1091 ft 137 kts 51°
2026-05-03 23:32 53.32806 -2.32803 909 ft 138 kts 51°
2026-05-03 23:32 53.33414 -2.31564 711 ft 138 kts 51°
2026-05-03 23:33 53.34013 -2.30300 532 ft 139 kts 52°
2026-05-03 23:33 53.34624 -2.29043 351 ft 140 kts 51°
2026-05-03 23:33 53.35222 -2.27808 266 ft 125 kts 51°
2026-05-03 23:33 53.35684 -2.26851 265 ft 77 kts 51°
2026-05-03 23:34 53.35909 -2.26388 265 ft 30 kts 52°
2026-05-03 23:34 53.36001 -2.26196 265 ft 12 kts 51°
2026-05-03 23:34 53.36039 -2.26139 265 ft 5 kts
2026-05-03 23:34 53.36081 -2.26178 265 ft 8 kts 323°
2026-05-03 23:35 53.36128 -2.26241 265 ft 7 kts 313°
2026-05-03 23:35 53.36135 -2.26326 265 ft 9 kts 250°
2026-05-03 23:35 53.36092 -2.26423 265 ft 11 kts 231°
2026-05-03 23:35 53.36035 -2.26538 265 ft 14 kts 231°
2026-05-03 23:36 53.35969 -2.26673 265 ft 15 kts 231°
2026-05-03 23:36 53.35899 -2.26829 265 ft 17 kts 234°
2026-05-03 23:36 53.35828 -2.27005 265 ft 18 kts 238°
2026-05-03 23:36 53.35757 -2.27170 265 ft 16 kts 232°
2026-05-03 23:37 53.35686 -2.27318 265 ft 16 kts 231°
2026-05-03 23:37 53.35628 -2.27436 265 ft 8 kts 231°
2026-05-03 23:37 53.35614 -2.27510 265 ft 6 kts 288°
2026-05-03 23:37 53.35659 -2.27577 265 ft 11 kts 326°
2026-05-03 23:38 53.35741 -2.27650 265 ft 15 kts 338°
2026-05-03 23:38 53.35822 -2.27746 265 ft 13 kts 308°
2026-05-03 23:38 53.35864 -2.27834 265 ft 7 kts 317°
2026-05-03 23:38 53.35925 -2.27850 265 ft 11 kts
2026-05-03 23:39 53.36016 -2.27832 265 ft 14 kts
2026-05-03 23:39 53.36100 -2.27900 265 ft 13 kts 313°
2026-05-03 23:39 53.36168 -2.28022 265 ft 15 kts 314°
2026-05-03 23:39 53.36250 -2.28159 265 ft 17 kts 315°
2026-05-03 23:40 53.36341 -2.28313 265 ft 19 kts 315°
2026-05-03 23:40 53.36439 -2.28477 265 ft 19 kts 315°
2026-05-03 23:40 53.36523 -2.28621 265 ft 14 kts 315°
2026-05-03 23:40 53.36578 -2.28724 265 ft 10 kts 306°
2026-05-03 23:41 53.36618 -2.28775 265 ft 6 kts 360°
2026-05-03 23:41 53.36655 -2.28731 265 ft 7 kts 45°
2026-05-03 23:41 53.36686 -2.28678 265 ft 3 kts 45°
2026-05-03 23:41 53.36703 -2.28670 265 ft 2 kts 348°
2026-05-03 23:42 53.36727 -2.28692 265 ft 5 kts 327°
2026-05-03 23:42 53.36747 -2.28721 265 ft 2 kts 317°
2026-05-03 23:42 53.36756 -2.28735 265 ft 1 kts 316°
2026-05-03 23:42 53.36756 -2.28736 265 ft 0 kts 316°